"Pseudo-MPEC" for P11JonK

Created 2023 Oct 3 12:22:07 UT using Find_Orb

Click here for an explanation of pseudo-MPECs

 
 Astrometry: 
     P11JonK* C2023 09 13-!=mf'BjQuuINiKuc[D`Ox`jAstrometry[gZBredacted;Cx5/:F51
     P11JonK  C2023 09 13pR^G,`='5g/$8+BN)(W[clickBGc\^,ZstjHYkTs/\/PkghPhereF51
     P11JonK  C2023 09 13/p4kMo3O2Q1J]kxS?B!x30LvF[L7oB2eVW9KforEh7vSYD:3c\hIF51
     P11JonK  C2023 09 13xhFD#L6%A2k-h#9Hh+xuGW?;D\QgR?twM.Wnexplanation@U.%UF51

Station data:
(F51) Pan-STARRS 1, Haleakala  (N20.707234 W156.255910)  US/Hawaii.
   Observers J. Bulger, T. Lowe, A. Schultz, M. Willman. Measurers K.
   Chambers, S. Chastel, T. de Boer, L. Denneau, J. Fairlamb, H. Flewelling,
   M. Huber, C.-C. Lin, E. Magnier, Y. Ramanjooloo, R. Wainscoat, R. Weryk.
   1.8-m Ritchey-Chrétien + CCD.

Orbital elements:  P11JonK
   Perihelion 2023 Jul 12.80002 +/- 54.7 TT = 19:12:01 (JD 2460138.30002)
Epoch 2023 Sep 13.0 TT = JDT 2460200.5   Earth MOID: 0.5915   Ju: 0.5492
M   6.69738806 +/- 13               (J2000 ecliptic)             AutoNEOCP
n   0.10767507 +/- 0.166            Peri.  197.34231 +/- 80
a   4.37581801 +/- 4.5              Node   115.52837 +/- 37
e   0.6347226 +/- 0.242             Incl.   17.80326 +/- 5.3
P   9.15                   H 19.90  G  0.15   U 11.5  SR
q 1.59838722 +/- 0.631    Q 7.15324880 +/- 448
From 4 observations 2023 Sept. 13 (42.3 min); mean residual 0".05
Residuals in arcseconds: 
230913 F51  .02-  .02-    230913 F51  .11+  .04+    
230913 F51  .03-  .01+    230913 F51  .07-  .03-    

Ephemerides (geocentric):
Date (UTC) HH   RA             Dec           delta  r     elong  mag " sig PA
---- --------  ------------   ------------  ------ ------ -----  --- --------
2023 10 03 12  00 03 52.256   -35 17 06.74  .93962 1.8244 140.2 22.1  32d  65
2023 10 03 13  00 03 51.873   -35 16 55.02  .93997 1.8246 140.2 22.1  32d  65
2023 10 03 14  00 03 51.492   -35 16 43.24  .94033 1.8248 140.1 22.1  32d  65
2023 10 03 15  00 03 51.112   -35 16 31.42  .94068 1.8250 140.1 22.1  32d  65
2023 10 03 16  00 03 50.734   -35 16 19.55  .94103 1.8252 140.1 22.1  32d  65
2023 10 03 17  00 03 50.356   -35 16 07.63  .94139 1.8254 140.1 22.1  32d  65
2023 10 03 18  00 03 49.980   -35 15 55.66  .94174 1.8256 140.1 22.1  32d  65
2023 10 03 19  00 03 49.606   -35 15 43.64  .94209 1.8258 140.0 22.1  32d  65
2023 10 03 20  00 03 49.233   -35 15 31.57  .94245 1.8260 140.0 22.1  32d  65
2023 10 03 21  00 03 48.861   -35 15 19.45  .94280 1.8262 140.0 22.1  32d  65
2023 10 03 22  00 03 48.491   -35 15 07.28  .94316 1.8265 140.0 22.1  32d  64
2023 10 03 23  00 03 48.121   -35 14 55.06  .94351 1.8267 140.0 22.1  32d  64
2023 10 04 00  00 03 47.754   -35 14 42.79  .94387 1.8269 139.9 22.1  32d  64
2023 10 04 01  00 03 47.387   -35 14 30.48  .94422 1.8271 139.9 22.1  33d  63
2023 10 04 02  00 03 47.023   -35 14 18.11  .94458 1.8273 139.9 22.1  33d  63
2023 10 04 03  00 03 46.659   -35 14 05.70  .94494 1.8275 139.9 22.1  33d  62
2023 10 04 04  00 03 46.297   -35 13 53.23  .94529 1.8277 139.9 22.1  34d  61
2023 10 04 05  00 03 45.936   -35 13 40.72  .94565 1.8279 139.8 22.1  35d  61
2023 10 04 06  00 03 45.577   -35 13 28.16  .94601 1.8281 139.8 22.1  36d  62
2023 10 04 07  00 03 45.219   -35 13 15.55  .94636 1.8283 139.8 22.1  36d  62
2023 10 04 08  00 03 44.862   -35 13 02.89  .94672 1.8285 139.8 22.1  36d  63
2023 10 04 09  00 03 44.507   -35 12 50.18  .94708 1.8287 139.8 22.1  36d  63
2023 10 04 10  00 03 44.154   -35 12 37.42  .94744 1.8289 139.7 22.1  36d  63
2023 10 04 11  00 03 43.801   -35 12 24.61  .94780 1.8291 139.7 22.1  36d  63
2023 10 04 12  00 03 43.450   -35 12 11.76  .94815 1.8294 139.7 22.1  36d  63
2023 10 04 13  00 03 43.101   -35 11 58.86  .94851 1.8296 139.7 22.1  36d  64
2023 10 04 14  00 03 42.753   -35 11 45.90  .94887 1.8298 139.7 22.1  36d  64
2023 10 04 15  00 03 42.406   -35 11 32.90  .94923 1.8300 139.6 22.1  36d  64
2023 10 04 16  00 03 42.061   -35 11 19.85  .94959 1.8302 139.6 22.1  36d  64
2023 10 04 17  00 03 41.718   -35 11 06.75  .94995 1.8304 139.6 22.1  36d  64
2023 10 04 18  00 03 41.375   -35 10 53.61  .95031 1.8306 139.6 22.1  36d  64
2023 10 04 19  00 03 41.035   -35 10 40.41  .95067 1.8308 139.6 22.1  36d  64
2023 10 04 20  00 03 40.695   -35 10 27.17  .95103 1.8310 139.5 22.1  36d  64
2023 10 04 21  00 03 40.357   -35 10 13.88  .95139 1.8312 139.5 22.1  36d  65
2023 10 04 22  00 03 40.021   -35 10 00.54  .95175 1.8314 139.5 22.1  36d  65
2023 10 04 23  00 03 39.686   -35 09 47.15  .95212 1.8316 139.5 22.1  36d  65
2023 10 05 00  00 03 39.352   -35 09 33.71  .95248 1.8319 139.5 22.1  36d  65
2023 10 05 01  00 03 39.020   -35 09 20.23  .95284 1.8321 139.4 22.1  36d  65
2023 10 05 02  00 03 38.690   -35 09 06.70  .95320 1.8323 139.4 22.1  36d  65
2023 10 05 03  00 03 38.361   -35 08 53.12  .95356 1.8325 139.4 22.1  36d  65
2023 10 05 04  00 03 38.033   -35 08 39.49  .95393 1.8327 139.4 22.1  36d  65
2023 10 05 05  00 03 37.707   -35 08 25.81  .95429 1.8329 139.4 22.1  36d  66
2023 10 05 06  00 03 37.382   -35 08 12.09  .95465 1.8331 139.3 22.1  36d  66
2023 10 05 07  00 03 37.059   -35 07 58.31  .95501 1.8333 139.3 22.1  36d  66
2023 10 05 08  00 03 36.738   -35 07 44.49  .95538 1.8335 139.3 22.1  36d  66
2023 10 05 09  00 03 36.418   -35 07 30.63  .95574 1.8337 139.3 22.1  36d  67
2023 10 05 10  00 03 36.099   -35 07 16.71  .95611 1.8339 139.3 22.1  36d  67
2023 10 05 11  00 03 35.782   -35 07 02.75  .95647 1.8342 139.2 22.1  36d  67